RH
100 100 100 100 100 94 90 86 85 98 94 93 85 88 88 90 86 94 96 100 100 92 98 99 93 78 75 77 78 80 81 80 79 78 76 74 73 71
100 100 100 100 100 97 94 89 87 93 97 91 97 100 97 97 100 100 98 94 88 96 95 79 74 72 72 76 79 81 80 80 79 77 75 74 71 77
99 100 100 100 99 96 93 91 94 98 98 100 99 98 97 96 91 84 84 92 88 69 74 71 70 72 76 75 76 80 82 81 79 77 76 74 72 82
99 99 99 100 99 99 97 94 94 96 94 98 99 96 93 88 92 94 68 55 58 61 72 72 69 65 68 75 78 81 80 80 79 78 79 82 77 76
98 98 99 96 95 94 94 94 92 92 92 92 97 96 92 72 68 62 59 62 64 62 62 62 70 74 78 79 77 77 78 79 79 77 75 74 74 75
94 91 89 88 90 93 95 97 98 94 94 95 76 73 68 66 66 65 66 66 60 56 54 56 72 73 68 76 78 76 77 77 77 77 76 76 76 72
96 99 99 99 99 97 97 97 94 95 93 83 73 74 73 68 67 65 62 63 59 56 62 58 55 55 55 59 60 61 82 80 78 77 77 76 72 75
98 98 99 99 99 100 98 98 92 94 90 83 88 83 74 72 63 63 64 68 76 69 73 71 60 58 60 60 60 80 81 83 82 81 82 79 78 80
96 95 92 83 73 66 88 92 82 73 75 79 80 81 77 69 67 66 76 82 85 80 74 80 67 64 62 62 61 84 87 88 90 88 84 79 78 79
76 66 64 67 70 85 84 81 82 80 78 79 80 75 72 68 70 81 85 87 80 69 81 89 73 73 70 59 59 61 79 83 86 89 89 87 86 88
61 73 75 78 83 89 83 83 79 72 67 64 66 79 87 90 90 86 81 78 84 83 85 92 86 84 74 67 63 63 71 87 91 94 93 93 93 90
70 69 80 82 85 83 81 76 72 66 64 76 81 67 63 63 67 70 72 77 83 87 86 94 94 96 89 78 78 81 80 76 92 91 96 99 99 94
66 68 70 84 80 80 81 66 70 83 88 81 69 67 72 79 84 88 93 98 94 91 91 98 95 98 95 91 85 83 80 76 76 77 77 80 95 99
66 71 72 77 76 79 78 86 91 93 74 72 74 85 88 89 88 96 100 100 99 98 94 92 99 98 99 95 90 81 82 82 86 86 84 82 92 97
70 83 81 65 63 60 81 85 85 72 74 76 80 85 91 92 98 99 99 99 93 87 83 82 91 94 100 99 97 97 93 94 92 83 89 91 91 88
71 60 62 62 68 75 75 71 73 76 82 83 87 93 98 99 98 98 96 95 98 89 81 82 85 93 97 100 100 98 98 99 94 96 96 95 96 96
79 49 51 58 69 73 74 76 80 86 93 94 96 99 100 100 96 96 93 94 99 100 98 86 82 82 79 88 100 99 97 94 97 100 100 100 97 93
70 56 58 67 76 80 84 88 89 95 97 97 96 96 94 93 91 90 92 96 98 100 100 99 98 99 95 87 84 100 96 95 94 95 96 100 97 91
52 60 67 77 84 86 88 91 95 97 98 96 96 95 94 91 100 96 98 100 100 96 92 89 99 99 94 90 76 76 78 88 94 97 98 96 97 93
65 63 68 74 82 86 89 98 100 99 98 98 95 96 96 97 99 99 97 100 100 99 100 97 92 92 97 94 95 90 75 86 94 96 91 94 97 90
58 64 70 73 77 83 89 99 100 100 100 98 97 98 96 98 99 99 100 99 97 99 98 94 90 96 95 98 97 87 82 81 84 90 96 98 97 92
61 63 66 71 72 80 90 98 100 100 100 100 98 98 96 97 98 100 100 100 100 100 98 96 94 98 100 100 95 91 88 86 85 91 85 87 98 96
59 62 64 67 67 73 83 94 100 100 100 100 100 98 98 99 97 100 100 100 99 100 98 96 95 97 98 100 95 94 89 87 91 91 84 80 83 87
Wind_Speed
19 19 22 21 21 19 17 15 12 4 6 11 11 19 21 24 23 25 24 20 18 16 16 20 18 16 16 16 17 17 18 18 17 16 16 17 17 18
11 10 10 10 11 11 12 12 11 7 3 13 17 10 21 20 20 18 16 16 17 16 14 14 16 15 16 16 17 18 17 17 17 17 17 18 18 18
5 5 5 6 6 6 6 6 7 8 4 3 7 11 10 11 10 10 11 16 15 12 12 12 14 16 15 16 16 16 16 16 16 17 17 18 18 18
0 0 0 1 2 3 4 7 8 4 2 4 5 8 8 7 8 9 9 8 8 8 9 11 13 15 15 15 15 15 16 16 17 17 18 18 19 20
4 5 6 6 7 6 6 6 6 6 4 4 3 7 6 6 6 4 4 7 7 7 11 12 11 15 14 13 13 14 16 17 17 17 18 19 20 20
12 12 11 10 10 8 7 6 4 6 6 5 2 3 3 3 4 4 7 5 8 12 14 13 9 10 13 14 15 15 15 15 15 16 16 18 19 21
17 16 14 12 10 8 6 7 6 4 2 4 3 2 2 1 3 2 4 8 13 9 4 16 13 12 11 14 15 14 13 15 16 17 18 20 21 22
15 14 13 11 9 8 8 5 5 4 2 2 1 0 4 2 1 3 7 8 3 3 18 22 15 16 16 15 15 15 17 17 17 18 19 20 21 22
11 9 7 5 4 5 4 1 2 0 1 3 4 5 4 3 4 6 6 8 10 14 17 14 16 17 17 20 22 18 16 14 14 14 16 18 20 21
9 8 8 7 7 5 1 1 1 1 3 4 5 6 8 7 7 9 10 12 16 11 5 6 12 19 28 24 9 7 8 12 15 18 19 20 20 22
10 8 5 5 3 3 2 2 3 2 3 2 3 5 6 7 7 9 11 10 7 4 8 5 7 25 23 12 11 4 16 20 20 19 19 20 21 21
4 4 3 2 3 3 4 2 2 2 3 4 3 4 4 4 5 8 8 7 6 6 2 15 11 12 11 9 8 27 25 26 21 22 22 19 18 19
2 0 1 3 5 4 3 2 1 4 6 6 4 5 4 3 3 4 5 6 9 10 13 14 12 16 8 15 19 23 24 31 34 30 25 18 15 16
1 2 4 5 5 4 3 2 3 5 4 4 4 4 5 6 8 9 10 9 9 14 17 15 15 20 19 22 20 24 30 32 27 31 26 21 23 23
2 5 5 6 4 3 0 4 3 4 4 6 7 7 9 13 11 8 9 10 14 15 14 14 18 20 22 22 26 29 27 28 26 17 26 31 29 29
7 8 4 4 3 3 3 3 4 5 6 6 8 10 9 10 11 11 14 15 19 20 14 14 15 18 24 25 27 30 26 17 28 29 29 33 32 31
7 3 2 2 2 2 2 3 4 6 7 8 8 11 12 12 14 14 15 17 18 18 24 21 16 19 25 28 28 28 28 26 28 31 29 30 28 26
6 3 3 4 4 4 5 6 7 5 7 10 11 12 14 15 17 15 16 16 19 19 18 22 23 24 22 21 23 29 27 29 31 29 27 24 28 27
5 5 6 5 5 6 7 7 8 8 10 11 12 13 14 16 16 20 21 20 17 18 22 25 24 17 10 11 24 18 25 30 30 28 28 27 28 31
7 8 9 8 8 9 7 8 9 10 11 13 13 15 17 17 19 21 22 21 21 21 20 20 19 20 17 14 25 37 30 28 27 27 28 30 31 35
8 10 10 11 12 11 10 11 12 13 13 14 16 16 17 18 21 22 22 19 20 20 21 21 24 24 28 30 20 25 28 28 30 34 31 27 26 30
11 12 12 13 14 14 12 13 15 15 16 16 17 18 19 19 21 22 21 21 21 21 23 26 27 26 26 22 24 28 32 32 31 31 30 29 28 7
13 14 15 16 15 15 15 15 16 16 16 17 18 19 20 22 22 22 23 23 23 23 23 25 27 25 26 27 27 28 29 32 30 30 34 29 29 31
Wind_Direction
275 263 245 236 233 229 230 226 221 185 219 219 197 215 213 216 228 241 246 248 248 252 262 275 280 286 287 286 285 287 290 292 291 289 287 283 281 280
287 275 258 235 232 233 240 238 236 211 213 211 212 226 219 227 238 240 245 257 260 264 271 278 284 286 281 284 288 288 288 288 288 286 284 281 281 280
285 276 258 243 233 222 221 214 219 208 150 176 208 219 221 220 230 246 252 257 265 272 276 283 284 284 288 289 290 289 289 288 287 285 283 281 281 283
28 328 201 201 159 152 156 150 151 163 145 131 193 208 213 222 230 241 255 269 282 287 287 291 292 289 288 291 290 289 289 288 286 285 285 283 281 281
95 102 100 108 108 110 111 114 121 123 123 169 143 196 199 208 215 222 289 285 294 297 287 287 283 290 294 290 291 292 291 288 286 283 280 279 278 279
100 103 107 113 115 114 112 105 85 82 94 119 143 169 156 217 248 290 271 276 291 293 292 293 298 295 293 292 295 295 294 290 288 284 282 279 279 279
102 98 95 97 98 97 101 99 93 84 106 124 179 92 88 266 258 260 274 304 310 291 296 315 314 305 304 313 312 306 301 295 289 286 284 282 281 279
108 108 116 119 110 111 114 131 143 123 182 123 123 167 252 287 287 300 317 323 319 311 320 313 314 318 327 325 320 305 299 296 292 290 287 286 284 282
103 102 98 91 84 78 82 139 185 164 5 243 243 245 250 269 292 299 298 304 290 299 309 308 322 319 331 323 316 303 299 303 304 301 298 292 289 286
90 81 75 67 63 57 355 294 174 251 238 247 264 269 272 274 281 291 294 299 304 312 320 275 318 321 324 330 341 334 329 326 315 310 302 295 290 285
83 69 66 97 55 25 305 201 221 213 227 237 273 289 282 271 271 279 284 302 323 290 322 312 311 325 327 329 329 325 315 316 314 311 306 297 292 287
105 106 70 55 10 352 327 292 265 275 304 282 279 285 280 277 266 270 285 286 293 308 328 343 320 2 321 296 287 315 320 325 316 309 307 300 295 290
129 7 355 353 343 334 325 308 323 318 302 301 307 312 302 291 296 289 290 292 292 278 289 324 297 314 284 298 304 308 315 320 320 320 320 315 305 295
34 310 300 312 318 322 308 318 319 304 306 315 318 324 319 314 304 298 295 301 294 292 305 304 285 292 284 291 291 303 307 312 315 311 311 313 306 299
353 345 320 322 313 310 327 315 303 324 326 322 324 326 321 315 314 314 306 303 304 301 304 303 294 297 285 277 284 295 305 306 305 305 308 304 306 305
314 321 301 308 315 306 301 323 324 329 329 328 324 320 318 317 318 316 307 306 306 304 313 312 302 298 290 281 279 287 292 285 293 292 293 295 295 297
318 320 331 315 324 325 322 326 326 328 329 330 323 318 316 315 318 319 313 310 300 296 302 314 311 303 299 291 281 282 287 290 287 286 289 288 291 289
309 307 293 295 306 312 320 324 330 326 320 316 315 314 314 315 315 319 317 308 297 298 297 302 301 300 300 295 282 276 284 286 290 292 292 281 287 293
286 280 284 282 295 303 310 314 308 310 311 310 311 309 310 309 304 308 311 310 297 292 292 304 297 292 301 296 295 292 292 292 290 289 288 286 285 291
261 279 288 283 283 290 297 287 296 305 307 310 310 309 307 306 309 308 309 304 295 291 290 299 294 295 283 287 293 298 302 287 284 287 292 292 284 290
281 270 271 280 280 283 284 285 290 297 301 306 306 306 311 311 305 304 302 298 298 297 293 294 299 302 296 297 286 283 294 294 289 282 285 288 287 293
290 283 278 280 283 281 282 286 290 291 293 297 306 306 306 306 303 301 296 292 291 289 287 293 302 300 293 284 281 288 300 302 300 289 289 280 276 276
285 286 286 286 286 283 280 276 282 284 283 285 296 305 306 304 306 299 294 292 289 291 294 296 297 294 285 281 284 293 299 301 300 300 301 296 286 278